Wetterdaten: Dienstag, 17.08.2021
Datum Zeit Temp. A. Temp. A. min Temp. A. max Feuchte A. Bod.Feucht 4 Luftdruck Regen Wind Richtung Richtung Sonnenschein ET Solar Taupunkt Windchill Windben Empfang
17.08.2021 00:00 11,1 C 11,1 C 11,2 C 90 % 0 cb 1019,4 hPa 0,2 l/m 4,8 km/h (1 Bft) NW 315 0 min 0,000 mm 0 W/m 9,5 C 11,1 C 12,9 km/h (3 Bft) 100,00 %
17.08.2021 00:10 10,9 C 10,9 C 11,1 C 90 % 0 cb 1019,5 hPa 0,0 l/m 3,2 km/h (1 Bft) NW 315 0 min 0,000 mm 0 W/m 9,3 C 10,9 C 8,0 km/h (2 Bft) 100,00 %
17.08.2021 00:20 10,8 C 10,8 C 10,9 C 90 % 0 cb 1019,7 hPa 0,0 l/m 1,6 km/h (1 Bft) NW 315 0 min 0,000 mm 0 W/m 9,2 C 10,8 C 6,4 km/h (2 Bft) 100,00 %
17.08.2021 00:30 10,7 C 10,7 C 10,8 C 90 % 0 cb 1019,9 hPa 0,0 l/m 1,6 km/h (1 Bft) NW 315 0 min 0,000 mm 0 W/m 9,1 C 10,7 C 4,8 km/h (1 Bft) 100,00 %
17.08.2021 00:40 10,6 C 10,6 C 10,7 C 91 % 0 cb 1020,0 hPa 0,0 l/m 3,2 km/h (1 Bft) NW 315 0 min 0,000 mm 0 W/m 9,2 C 10,6 C 6,4 km/h (2 Bft) 100,00 %
17.08.2021 00:50 10,5 C 10,5 C 10,6 C 91 % 0 cb 1019,9 hPa 0,0 l/m 1,6 km/h (1 Bft) NW 315 0 min 0,000 mm 0 W/m 9,1 C 10,5 C 6,4 km/h (2 Bft) 100,00 %
17.08.2021 01:00 10,3 C 10,3 C 10,5 C 91 % 0 cb 1019,9 hPa 0,0 l/m 0,0 km/h (0 Bft) NW 315 0 min 0,000 mm 0 W/m 8,9 C 10,3 C 3,2 km/h (1 Bft) 100,00 %
17.08.2021 01:10 10,2 C 10,2 C 10,3 C 91 % 0 cb 1019,9 hPa 0,0 l/m 0,0 km/h (0 Bft) NW 315 0 min 0,000 mm 0 W/m 8,8 C 10,2 C 1,6 km/h (1 Bft) 100,00 %
17.08.2021 01:20 9,9 C 9,9 C 10,2 C 91 % 0 cb 1019,8 hPa 0,0 l/m 1,6 km/h (1 Bft) NW 315 0 min 0,000 mm 0 W/m 8,5 C 9,9 C 3,2 km/h (1 Bft) 100,00 %
17.08.2021 01:30 9,8 C 9,8 C 9,9 C 92 % 0 cb 1019,8 hPa 0,0 l/m 0,0 km/h (0 Bft) NW 315 0 min 0,000 mm 0 W/m 8,6 C 9,8 C 3,2 km/h (1 Bft) 100,00 %
17.08.2021 01:40 9,7 C 9,7 C 9,8 C 92 % 0 cb 1019,8 hPa 0,0 l/m 0,0 km/h (0 Bft) N 0 0 min 0,000 mm 0 W/m 8,5 C 9,7 C 0,0 km/h (0 Bft) 100,00 %
17.08.2021 01:50 9,4 C 9,4 C 9,7 C 92 % 0 cb 1019,9 hPa 0,0 l/m 0,0 km/h (0 Bft) N 0 0 min 0,000 mm 0 W/m 8,2 C 9,4 C 0,0 km/h (0 Bft) 100,00 %
17.08.2021 02:00 9,3 C 9,3 C 9,4 C 92 % 0 cb 1019,9 hPa 0,0 l/m 0,0 km/h (0 Bft) N 0 0 min 0,000 mm 0 W/m 8,1 C 9,3 C 0,0 km/h (0 Bft) 99,12 %
17.08.2021 02:10 9,1 C 9,1 C 9,3 C 92 % 0 cb 1019,9 hPa 0,0 l/m 0,0 km/h (0 Bft) N 0 0 min 0,000 mm 0 W/m 7,9 C 9,1 C 0,0 km/h (0 Bft) 100,00 %
17.08.2021 02:20 8,9 C 8,9 C 9,1 C 93 % 0 cb 1020,0 hPa 0,0 l/m 0,0 km/h (0 Bft) N 0 0 min 0,000 mm 0 W/m 7,8 C 8,9 C 0,0 km/h (0 Bft) 100,00 %
17.08.2021 02:30 8,9 C 8,8 C 8,9 C 93 % 0 cb 1020,0 hPa 0,0 l/m 0,0 km/h (0 Bft) NW 315 0 min 0,000 mm 0 W/m 7,8 C 8,9 C 4,8 km/h (1 Bft) 100,00 %
17.08.2021 02:40 8,9 C 8,8 C 8,9 C 94 % 0 cb 1019,9 hPa 0,0 l/m 1,6 km/h (1 Bft) NW 315 0 min 0,000 mm 0 W/m 8,0 C 8,9 C 3,2 km/h (1 Bft) 100,00 %
17.08.2021 02:50 8,9 C 8,9 C 8,9 C 94 % 0 cb 1019,9 hPa 0,0 l/m 0,0 km/h (0 Bft) NW 315 0 min 0,000 mm 0 W/m 8,0 C 8,9 C 1,6 km/h (1 Bft) 100,00 %
17.08.2021 03:00 9,0 C 8,9 C 9,0 C 95 % 0 cb 1019,8 hPa 0,0 l/m 1,6 km/h (1 Bft) NW 315 0 min 0,000 mm 0 W/m 8,2 C 9,0 C 6,4 km/h (2 Bft) 100,00 %
17.08.2021 03:10 9,1 C 9,0 C 9,1 C 95 % 0 cb 1019,8 hPa 0,0 l/m 1,6 km/h (1 Bft) NW 315 0 min 0,000 mm 0 W/m 8,3 C 9,1 C 4,8 km/h (1 Bft) 100,00 %
17.08.2021 03:20 9,2 C 9,1 C 9,2 C 95 % 0 cb 1019,9 hPa 0,0 l/m 1,6 km/h (1 Bft) NW 315 0 min 0,000 mm 0 W/m 8,4 C 9,2 C 4,8 km/h (1 Bft) 100,00 %
17.08.2021 03:30 9,3 C 9,2 C 9,3 C 95 % 0 cb 1019,9 hPa 0,0 l/m 1,6 km/h (1 Bft) NW 315 0 min 0,000 mm 0 W/m 8,5 C 9,3 C 6,4 km/h (2 Bft) 100,00 %
17.08.2021 03:40 9,3 C 9,3 C 9,3 C 95 % 0 cb 1020,0 hPa 0,0 l/m 1,6 km/h (1 Bft) NW 315 0 min 0,000 mm 0 W/m 8,5 C 9,3 C 4,8 km/h (1 Bft) 100,00 %
17.08.2021 03:50 9,3 C 9,3 C 9,3 C 95 % 0 cb 1020,1 hPa 0,0 l/m 1,6 km/h (1 Bft) NW 315 0 min 0,000 mm 0 W/m 8,5 C 9,3 C 6,4 km/h (2 Bft) 100,00 %
17.08.2021 04:00 9,3 C 9,3 C 9,3 C 95 % 0 cb 1020,1 hPa 0,0 l/m 3,2 km/h (1 Bft) W 270 0 min 0,000 mm 0 W/m 8,5 C 9,3 C 11,3 km/h (2 Bft) 100,00 %
17.08.2021 04:10 9,3 C 9,3 C 9,3 C 95 % 0 cb 1020,1 hPa 0,0 l/m 1,6 km/h (1 Bft) W 270 0 min 0,000 mm 0 W/m 8,5 C 9,3 C 9,7 km/h (2 Bft) 100,00 %
17.08.2021 04:20 9,3 C 9,3 C 9,3 C 95 % 0 cb 1020,1 hPa 0,0 l/m 1,6 km/h (1 Bft) W 270 0 min 0,000 mm 0 W/m 8,5 C 9,3 C 9,7 km/h (2 Bft) 100,00 %
17.08.2021 04:30 9,3 C 9,3 C 9,3 C 94 % 0 cb 1020,2 hPa 0,0 l/m 1,6 km/h (1 Bft) W 270 0 min 0,000 mm 0 W/m 8,4 C 9,3 C 6,4 km/h (2 Bft) 100,00 %
17.08.2021 04:40 8,9 C 8,9 C 9,3 C 93 % 0 cb 1020,4 hPa 0,0 l/m 0,0 km/h (0 Bft) W 270 0 min 0,000 mm 0 W/m 7,8 C 8,9 C 4,8 km/h (1 Bft) 100,00 %
17.08.2021 04:50 8,6 C 8,6 C 8,9 C 93 % 0 cb 1020,3 hPa 0,0 l/m 0,0 km/h (0 Bft) W 270 0 min 0,000 mm 0 W/m 7,5 C 8,6 C 1,6 km/h (1 Bft) 100,00 %
17.08.2021 05:00 8,3 C 8,3 C 8,6 C 94 % 0 cb 1020,2 hPa 0,0 l/m 0,0 km/h (0 Bft) W 270 0 min 0,000 mm 0 W/m 7,4 C 8,3 C 3,2 km/h (1 Bft) 100,00 %
17.08.2021 05:10 8,2 C 8,2 C 8,3 C 94 % 0 cb 1020,3 hPa 0,0 l/m 0,0 km/h (0 Bft) W 270 0 min 0,000 mm 0 W/m 7,3 C 8,2 C 3,2 km/h (1 Bft) 100,00 %
17.08.2021 05:20 8,0 C 8,0 C 8,2 C 94 % 0 cb 1020,3 hPa 0,0 l/m 0,0 km/h (0 Bft) W 270 0 min 0,000 mm 0 W/m 7,1 C 8,0 C 3,2 km/h (1 Bft) 100,00 %
17.08.2021 05:30 7,9 C 7,9 C 8,1 C 95 % 0 cb 1020,3 hPa 0,0 l/m 0,0 km/h (0 Bft) W 270 0 min 0,000 mm 0 W/m 7,1 C 7,9 C 1,6 km/h (1 Bft) 100,00 %
17.08.2021 05:40 7,9 C 7,9 C 7,9 C 95 % 0 cb 1020,4 hPa 0,0 l/m 0,0 km/h (0 Bft) W 270 0 min 0,000 mm 0 W/m 7,1 C 7,9 C 1,6 km/h (1 Bft) 100,00 %
17.08.2021 05:50 7,8 C 7,8 C 7,9 C 95 % 0 cb 1020,4 hPa 0,0 l/m 0,0 km/h (0 Bft) N 0 0 min 0,000 mm 0 W/m 7,0 C 7,8 C 0,0 km/h (0 Bft) 100,00 %
17.08.2021 06:00 7,7 C 7,7 C 7,8 C 95 % 0 cb 1020,4 hPa 0,0 l/m 0,0 km/h (0 Bft) N 0 0 min 0,000 mm 0 W/m 7,0 C 7,7 C 0,0 km/h (0 Bft) 100,00 %
17.08.2021 06:10 7,7 C 7,7 C 7,7 C 95 % 0 cb 1020,5 hPa 0,0 l/m 0,0 km/h (0 Bft) N 0 0 min 0,000 mm 0 W/m 7,0 C 7,7 C 0,0 km/h (0 Bft) 100,00 %
17.08.2021 06:20 7,7 C 7,7 C 7,7 C 95 % 0 cb 1020,4 hPa 0,0 l/m 0,0 km/h (0 Bft) W 270 0 min 0,000 mm 0 W/m 7,0 C 7,7 C 1,6 km/h (1 Bft) 100,00 %
17.08.2021 06:30 7,7 C 7,7 C 7,8 C 96 % 0 cb 1020,5 hPa 0,0 l/m 0,0 km/h (0 Bft) W 270 0 min 0,000 mm 7 W/m 7,1 C 7,7 C 1,6 km/h (1 Bft) 99,56 %
17.08.2021 06:40 7,9 C 7,7 C 7,9 C 96 % 0 cb 1020,5 hPa 0,0 l/m 0,0 km/h (0 Bft) W 270 0 min 0,000 mm 18 W/m 7,3 C 7,9 C 3,2 km/h (1 Bft) 100,00 %
17.08.2021 06:50 8,0 C 7,9 C 8,0 C 96 % 0 cb 1020,5 hPa 0,0 l/m 0,0 km/h (0 Bft) W 270 0 min 0,000 mm 26 W/m 7,4 C 8,0 C 1,6 km/h (1 Bft) 100,00 %
17.08.2021 07:00 8,1 C 8,0 C 8,1 C 96 % 0 cb 1020,7 hPa 0,0 l/m 0,0 km/h (0 Bft) N 0 0 min 0,000 mm 25 W/m 7,5 C 8,1 C 0,0 km/h (0 Bft) 99,56 %
17.08.2021 07:10 8,2 C 8,1 C 8,2 C 96 % 0 cb 1020,8 hPa 0,0 l/m 0,0 km/h (0 Bft) W 270 0 min 0,000 mm 33 W/m 7,6 C 8,2 C 1,6 km/h (1 Bft) 100,00 %
17.08.2021 07:20 8,2 C 8,2 C 8,2 C 96 % 0 cb 1020,9 hPa 0,0 l/m 0,0 km/h (0 Bft) W 270 0 min 0,000 mm 30 W/m 7,6 C 8,2 C 1,6 km/h (1 Bft) 100,00 %
17.08.2021 07:30 8,2 C 8,2 C 8,2 C 96 % 0 cb 1020,9 hPa 0,0 l/m 0,0 km/h (0 Bft) W 270 0 min 0,000 mm 39 W/m 7,6 C 8,2 C 4,8 km/h (1 Bft) 100,00 %
17.08.2021 07:40 8,7 C 8,2 C 8,7 C 96 % 0 cb 1021,1 hPa 0,0 l/m 4,8 km/h (1 Bft) W 270 0 min 0,000 mm 76 W/m 8,1 C 8,3 C 9,7 km/h (2 Bft) 100,00 %
17.08.2021 07:50 9,1 C 8,7 C 9,1 C 97 % 0 cb 1021,1 hPa 0,0 l/m 4,8 km/h (1 Bft) W 270 0 min 0,000 mm 83 W/m 8,6 C 8,8 C 11,3 km/h (2 Bft) 100,00 %
17.08.2021 08:00 9,4 C 9,1 C 9,4 C 97 % 0 cb 1021,2 hPa 0,0 l/m 3,2 km/h (1 Bft) W 270 0 min 0,025 mm 95 W/m 8,9 C 9,4 C 11,3 km/h (2 Bft) 99,12 %
17.08.2021 08:10 9,6 C 9,4 C 9,6 C 97 % 0 cb 1021,4 hPa 0,0 l/m 4,8 km/h (1 Bft) W 270 0 min 0,000 mm 109 W/m 9,1 C 9,4 C 11,3 km/h (2 Bft) 100,00 %
17.08.2021 08:20 9,8 C 9,6 C 9,8 C 97 % 0 cb 1021,4 hPa 0,0 l/m 3,2 km/h (1 Bft) W 270 0 min 0,000 mm 111 W/m 9,3 C 9,8 C 11,3 km/h (2 Bft) 100,00 %
17.08.2021 08:30 9,9 C 9,8 C 9,9 C 96 % 0 cb 1021,4 hPa 0,0 l/m 3,2 km/h (1 Bft) W 270 10 min 0,000 mm 190 W/m 9,3 C 9,9 C 12,9 km/h (3 Bft) 100,00 %
17.08.2021 08:40 10,1 C 9,9 C 10,1 C 97 % 0 cb 1021,6 hPa 0,0 l/m 1,6 km/h (1 Bft) W 270 0 min 0,000 mm 149 W/m 9,6 C 10,1 C 8,0 km/h (2 Bft) 100,00 %
17.08.2021 08:50 10,2 C 10,1 C 10,2 C 96 % 0 cb 1021,4 hPa 0,0 l/m 3,2 km/h (1 Bft) W 270 0 min 0,000 mm 141 W/m 9,6 C 10,2 C 8,0 km/h (2 Bft) 100,00 %
17.08.2021 09:00 10,3 C 10,1 C 10,3 C 97 % 0 cb 1021,4 hPa 0,0 l/m 3,2 km/h (1 Bft) W 270 10 min 0,051 mm 237 W/m 9,8 C 10,3 C 8,0 km/h (2 Bft) 100,00 %
17.08.2021 09:10 10,5 C 10,3 C 10,5 C 96 % 0 cb 1021,6 hPa 0,0 l/m 4,8 km/h (1 Bft) W-SW 247 10 min 0,000 mm 309 W/m 9,9 C 10,5 C 14,5 km/h (3 Bft) 100,00 %
17.08.2021 09:20 10,7 C 10,5 C 10,7 C 96 % 0 cb 1021,6 hPa 0,0 l/m 4,8 km/h (1 Bft) W 270 10 min 0,000 mm 221 W/m 10,1 C 10,7 C 11,3 km/h (2 Bft) 100,00 %
17.08.2021 09:30 10,9 C 10,7 C 11,0 C 96 % 0 cb 1021,6 hPa 0,0 l/m 3,2 km/h (1 Bft) W-SW 247 10 min 0,000 mm 392 W/m 10,3 C 10,9 C 11,3 km/h (2 Bft) 100,00 %
17.08.2021 09:40 11,1 C 11,0 C 11,1 C 95 % 0 cb 1021,6 hPa 0,0 l/m 4,8 km/h (1 Bft) W-SW 247 10 min 0,000 mm 236 W/m 10,3 C 11,1 C 12,9 km/h (3 Bft) 99,56 %
17.08.2021 09:50 11,2 C 11,1 C 11,2 C 94 % 0 cb 1021,7 hPa 0,0 l/m 3,2 km/h (1 Bft) W-SW 247 10 min 0,000 mm 281 W/m 10,3 C 11,2 C 12,9 km/h (3 Bft) 100,00 %
17.08.2021 10:00 11,2 C 11,2 C 11,3 C 93 % 0 cb 1021,8 hPa 0,0 l/m 4,8 km/h (1 Bft) W 270 10 min 0,102 mm 195 W/m 10,1 C 11,2 C 12,9 km/h (3 Bft) 100,00 %
17.08.2021 10:10 11,3 C 11,1 C 11,3 C 93 % 0 cb 1021,8 hPa 0,0 l/m 3,2 km/h (1 Bft) W 270 10 min 0,000 mm 262 W/m 10,2 C 11,3 C 16,1 km/h (3 Bft) 100,00 %
17.08.2021 10:20 11,5 C 11,2 C 11,5 C 92 % 0 cb 1021,8 hPa 0,0 l/m 4,8 km/h (1 Bft) SW 225 10 min 0,000 mm 304 W/m 10,2 C 11,5 C 16,1 km/h (3 Bft) 100,00 %
17.08.2021 10:30 11,8 C 11,5 C 11,8 C 92 % 0 cb 1021,9 hPa 0,0 l/m 3,2 km/h (1 Bft) W-SW 247 10 min 0,000 mm 388 W/m 10,5 C 11,8 C 8,0 km/h (2 Bft) 100,00 %
17.08.2021 10:40 12,4 C 11,8 C 12,4 C 90 % 0 cb 1021,6 hPa 0,0 l/m 4,8 km/h (1 Bft) W-SW 247 10 min 0,000 mm 847 W/m 10,8 C 12,4 C 14,5 km/h (3 Bft) 100,00 %
17.08.2021 10:50 12,7 C 12,5 C 12,7 C 88 % 0 cb 1021,4 hPa 0,0 l/m 4,8 km/h (1 Bft) W-SW 247 10 min 0,000 mm 299 W/m 10,8 C 12,7 C 14,5 km/h (3 Bft) 100,00 %
17.08.2021 11:00 12,7 C 12,6 C 12,7 C 89 % 0 cb 1021,6 hPa 0,0 l/m 4,8 km/h (1 Bft) W-SW 247 10 min 0,152 mm 424 W/m 10,9 C 12,7 C 12,9 km/h (3 Bft) 100,00 %
17.08.2021 11:10 13,0 C 12,7 C 13,0 C 89 % 0 cb 1021,7 hPa 0,0 l/m 4,8 km/h (1 Bft) S-SW 202 10 min 0,000 mm 297 W/m 11,2 C 13,0 C 14,5 km/h (3 Bft) 100,00 %
17.08.2021 11:20 13,2 C 13,0 C 13,2 C 88 % 0 cb 1021,7 hPa 0,0 l/m 6,4 km/h (2 Bft) S-SW 202 10 min 0,000 mm 645 W/m 11,3 C 13,2 C 17,7 km/h (3 Bft) 100,00 %
17.08.2021 11:30 13,4 C 13,2 C 13,4 C 86 % 0 cb 1021,7 hPa 0,0 l/m 6,4 km/h (2 Bft) W 270 10 min 0,000 mm 341 W/m 11,1 C 13,4 C 17,7 km/h (3 Bft) 100,00 %
17.08.2021 11:40 13,2 C 13,2 C 13,4 C 86 % 0 cb 1021,7 hPa 0,0 l/m 8,0 km/h (2 Bft) W 270 10 min 0,000 mm 301 W/m 10,9 C 13,2 C 17,7 km/h (3 Bft) 100,00 %
17.08.2021 11:50 13,4 C 13,2 C 13,4 C 86 % 0 cb 1021,7 hPa 0,0 l/m 6,4 km/h (2 Bft) W 270 10 min 0,000 mm 403 W/m 11,1 C 13,4 C 14,5 km/h (3 Bft) 100,00 %
17.08.2021 12:00 13,7 C 13,4 C 13,7 C 86 % 0 cb 1021,4 hPa 0,0 l/m 4,8 km/h (1 Bft) SW 225 10 min 0,178 mm 345 W/m 11,4 C 13,7 C 16,1 km/h (3 Bft) 100,00 %
17.08.2021 12:10 14,1 C 13,7 C 14,1 C 85 % 0 cb 1021,2 hPa 0,0 l/m 4,8 km/h (1 Bft) SW 225 10 min 0,000 mm 782 W/m 11,6 C 14,1 C 12,9 km/h (3 Bft) 100,00 %
17.08.2021 12:20 14,7 C 14,1 C 14,7 C 83 % 0 cb 1021,2 hPa 0,0 l/m 4,8 km/h (1 Bft) W 270 10 min 0,000 mm 515 W/m 11,8 C 14,7 C 14,5 km/h (3 Bft) 99,56 %
17.08.2021 12:30 15,4 C 14,7 C 15,4 C 84 % 0 cb 1021,1 hPa 0,0 l/m 4,8 km/h (1 Bft) W 270 10 min 0,000 mm 921 W/m 12,7 C 15,4 C 16,1 km/h (3 Bft) 100,00 %
17.08.2021 12:40 15,8 C 15,4 C 15,8 C 78 % 0 cb 1021,0 hPa 0,0 l/m 6,4 km/h (2 Bft) W 270 10 min 0,000 mm 828 W/m 12,0 C 15,8 C 16,1 km/h (3 Bft) 100,00 %
17.08.2021 12:50 16,0 C 15,8 C 16,1 C 75 % 0 cb 1020,9 hPa 0,0 l/m 6,4 km/h (2 Bft) SW 225 10 min 0,000 mm 649 W/m 11,6 C 16,0 C 19,3 km/h (3 Bft) 100,00 %
17.08.2021 13:00 15,9 C 15,8 C 16,0 C 77 % 0 cb 1021,0 hPa 0,0 l/m 8,0 km/h (2 Bft) W 270 10 min 0,330 mm 657 W/m 11,9 C 15,9 C 22,5 km/h (4 Bft) 99,56 %
17.08.2021 13:10 16,3 C 15,9 C 16,4 C 74 % 0 cb 1021,0 hPa 0,0 l/m 8,0 km/h (2 Bft) W-SW 247 10 min 0,000 mm 944 W/m 11,7 C 16,3 C 22,5 km/h (4 Bft) 100,00 %
17.08.2021 13:20 16,3 C 16,2 C 16,3 C 73 % 0 cb 1021,2 hPa 0,0 l/m 11,3 km/h (2 Bft) W 270 10 min 0,000 mm 733 W/m 11,4 C 16,3 C 24,1 km/h (4 Bft) 100,00 %
17.08.2021 13:30 16,4 C 16,3 C 16,4 C 72 % 0 cb 1021,0 hPa 0,0 l/m 8,0 km/h (2 Bft) W 270 10 min 0,000 mm 392 W/m 11,3 C 16,4 C 24,1 km/h (4 Bft) 100,00 %
17.08.2021 13:40 16,9 C 16,4 C 16,9 C 73 % 0 cb 1020,7 hPa 0,0 l/m 8,0 km/h (2 Bft) W 270 10 min 0,000 mm 808 W/m 12,0 C 16,9 C 27,4 km/h (4 Bft) 100,00 %
17.08.2021 13:50 16,7 C 16,7 C 17,0 C 70 % 0 cb 1020,9 hPa 0,0 l/m 9,7 km/h (2 Bft) W 270 10 min 0,000 mm 369 W/m 11,2 C 16,7 C 22,5 km/h (4 Bft) 100,00 %
17.08.2021 14:00 16,8 C 16,7 C 16,8 C 71 % 0 cb 1020,5 hPa 0,0 l/m 8,0 km/h (2 Bft) W 270 10 min 0,330 mm 963 W/m 11,5 C 16,8 C 19,3 km/h (3 Bft) 100,00 %
17.08.2021 14:10 17,0 C 16,8 C 17,0 C 68 % 0 cb 1020,6 hPa 0,0 l/m 9,7 km/h (2 Bft) W 270 10 min 0,000 mm 420 W/m 11,0 C 17,0 C 20,9 km/h (4 Bft) 100,00 %
17.08.2021 14:20 16,7 C 16,7 C 17,0 C 68 % 0 cb 1020,5 hPa 0,0 l/m 9,7 km/h (2 Bft) W-SW 247 10 min 0,000 mm 345 W/m 10,8 C 16,7 C 24,1 km/h (4 Bft) 100,00 %
17.08.2021 14:30 16,3 C 16,3 C 16,7 C 69 % 0 cb 1020,5 hPa 0,0 l/m 9,7 km/h (2 Bft) W 270 10 min 0,000 mm 316 W/m 10,6 C 16,3 C 24,1 km/h (4 Bft) 100,00 %
17.08.2021 14:40 16,0 C 16,0 C 16,3 C 71 % 0 cb 1020,1 hPa 0,0 l/m 6,4 km/h (2 Bft) S-SW 202 10 min 0,000 mm 200 W/m 10,7 C 16,0 C 17,7 km/h (3 Bft) 100,00 %
17.08.2021 14:50 15,7 C 15,7 C 16,0 C 72 % 0 cb 1020,1 hPa 0,0 l/m 9,7 km/h (2 Bft) W 270 10 min 0,000 mm 202 W/m 10,7 C 15,7 C 24,1 km/h (4 Bft) 100,00 %
17.08.2021 15:00 15,6 C 15,6 C 15,7 C 74 % 0 cb 1019,8 hPa 0,0 l/m 6,4 km/h (2 Bft) W 270 10 min 0,178 mm 239 W/m 11,0 C 15,6 C 19,3 km/h (3 Bft) 100,00 %
17.08.2021 15:10 15,8 C 15,7 C 15,8 C 74 % 0 cb 1019,8 hPa 0,0 l/m 4,8 km/h (1 Bft) W-SW 247 10 min 0,000 mm 207 W/m 11,2 C 15,8 C 16,1 km/h (3 Bft) 100,00 %
17.08.2021 15:20 15,7 C 15,7 C 15,8 C 74 % 0 cb 1019,9 hPa 0,0 l/m 6,4 km/h (2 Bft) W-SW 247 10 min 0,000 mm 155 W/m 11,1 C 15,7 C 17,7 km/h (3 Bft) 99,12 %
17.08.2021 15:30 15,4 C 15,4 C 15,7 C 74 % 0 cb 1019,9 hPa 0,0 l/m 8,0 km/h (2 Bft) W 270 10 min 0,000 mm 206 W/m 10,8 C 15,4 C 16,1 km/h (3 Bft) 100,00 %
17.08.2021 15:40 15,4 C 15,4 C 15,4 C 75 % 0 cb 1019,8 hPa 0,0 l/m 6,4 km/h (2 Bft) W 270 10 min 0,000 mm 204 W/m 11,0 C 15,4 C 17,7 km/h (3 Bft) 100,00 %
17.08.2021 15:50 15,3 C 15,3 C 15,5 C 75 % 0 cb 1019,8 hPa 0,0 l/m 6,4 km/h (2 Bft) W 270 0 min 0,000 mm 142 W/m 10,9 C 15,3 C 17,7 km/h (3 Bft) 100,00 %
17.08.2021 16:00 15,3 C 15,3 C 15,3 C 75 % 0 cb 1019,8 hPa 0,0 l/m 6,4 km/h (2 Bft) W 270 0 min 0,102 mm 144 W/m 10,9 C 15,3 C 14,5 km/h (3 Bft) 100,00 %
17.08.2021 16:10 15,3 C 15,2 C 15,3 C 76 % 0 cb 1019,6 hPa 0,0 l/m 6,4 km/h (2 Bft) W 270 10 min 0,000 mm 153 W/m 11,1 C 15,3 C 17,7 km/h (3 Bft) 100,00 %
17.08.2021 16:20 15,3 C 15,3 C 15,4 C 79 % 0 cb 1019,7 hPa 0,0 l/m 3,2 km/h (1 Bft) W 270 10 min 0,000 mm 156 W/m 11,7 C 15,3 C 9,7 km/h (2 Bft) 100,00 %
17.08.2021 16:30 15,4 C 15,3 C 15,4 C 77 % 0 cb 1019,5 hPa 0,0 l/m 3,2 km/h (1 Bft) SW 225 0 min 0,000 mm 141 W/m 11,4 C 15,4 C 9,7 km/h (2 Bft) 100,00 %
17.08.2021 16:40 15,4 C 15,4 C 15,5 C 77 % 0 cb 1019,5 hPa 0,0 l/m 4,8 km/h (1 Bft) SW 225 0 min 0,000 mm 127 W/m 11,4 C 15,4 C 12,9 km/h (3 Bft) 100,00 %
17.08.2021 16:50 15,4 C 15,4 C 15,5 C 77 % 0 cb 1019,6 hPa 0,0 l/m 4,8 km/h (1 Bft) W 270 0 min 0,000 mm 125 W/m 11,4 C 15,4 C 12,9 km/h (3 Bft) 100,00 %
17.08.2021 17:00 15,3 C 15,3 C 15,4 C 77 % 0 cb 1019,4 hPa 0,0 l/m 3,2 km/h (1 Bft) W-SW 247 0 min 0,076 mm 95 W/m 11,3 C 15,3 C 12,9 km/h (3 Bft) 100,00 %
17.08.2021 17:10 15,2 C 15,2 C 15,3 C 78 % 0 cb 1019,4 hPa 0,0 l/m 1,6 km/h (1 Bft) SW 225 0 min 0,000 mm 67 W/m 11,4 C 15,2 C 8,0 km/h (2 Bft) 100,00 %
17.08.2021 17:20 15,2 C 15,2 C 15,2 C 79 % 0 cb 1019,4 hPa 0,0 l/m 1,6 km/h (1 Bft) SW 225 0 min 0,000 mm 77 W/m 11,6 C 15,2 C 9,7 km/h (2 Bft) 99,56 %
17.08.2021 17:30 15,2 C 15,2 C 15,2 C 79 % 0 cb 1019,3 hPa 0,0 l/m 1,6 km/h (1 Bft) SW 225 0 min 0,000 mm 76 W/m 11,6 C 15,2 C 8,0 km/h (2 Bft) 100,00 %
17.08.2021 17:40 15,1 C 15,1 C 15,2 C 79 % 0 cb 1019,3 hPa 0,0 l/m 0,0 km/h (0 Bft) SW 225 0 min 0,000 mm 51 W/m 11,5 C 15,1 C 4,8 km/h (1 Bft) 100,00 %
17.08.2021 17:50 15,1 C 15,1 C 15,1 C 80 % 0 cb 1019,2 hPa 0,0 l/m 1,6 km/h (1 Bft) SW 225 0 min 0,000 mm 53 W/m 11,7 C 15,1 C 6,4 km/h (2 Bft) 100,00 %
17.08.2021 18:00 14,9 C 14,9 C 15,1 C 80 % 0 cb 1019,1 hPa 0,0 l/m 1,6 km/h (1 Bft) SW 225 0 min 0,025 mm 46 W/m 11,5 C 14,9 C 8,0 km/h (2 Bft) 100,00 %
17.08.2021 18:10 14,9 C 14,9 C 14,9 C 81 % 0 cb 1019,1 hPa 0,0 l/m 1,6 km/h (1 Bft) SW 225 0 min 0,000 mm 53 W/m 11,7 C 14,9 C 6,4 km/h (2 Bft) 100,00 %
17.08.2021 18:20 14,8 C 14,8 C 14,9 C 81 % 0 cb 1019,1 hPa 0,0 l/m 1,6 km/h (1 Bft) SW 225 0 min 0,000 mm 51 W/m 11,6 C 14,8 C 6,4 km/h (2 Bft) 100,00 %
17.08.2021 18:30 14,7 C 14,7 C 14,8 C 81 % 0 cb 1019,1 hPa 0,0 l/m 3,2 km/h (1 Bft) SW 225 0 min 0,000 mm 40 W/m 11,5 C 14,7 C 14,5 km/h (3 Bft) 100,00 %
17.08.2021 18:40 14,3 C 14,3 C 14,7 C 84 % 0 cb 1018,8 hPa 0,0 l/m 3,2 km/h (1 Bft) W-NW 292 0 min 0,000 mm 32 W/m 11,6 C 14,3 C 9,7 km/h (2 Bft) 99,56 %
17.08.2021 18:50 14,0 C 14,0 C 14,3 C 86 % 0 cb 1018,9 hPa 0,0 l/m 3,2 km/h (1 Bft) W-NW 292 0 min 0,000 mm 26 W/m 11,7 C 14,0 C 6,4 km/h (2 Bft) 100,00 %
17.08.2021 19:00 13,8 C 13,8 C 14,0 C 87 % 0 cb 1018,8 hPa 0,0 l/m 1,6 km/h (1 Bft) W-NW 292 0 min 0,025 mm 42 W/m 11,7 C 13,8 C 9,7 km/h (2 Bft) 100,00 %
17.08.2021 19:10 13,7 C 13,7 C 13,8 C 89 % 0 cb 1018,9 hPa 0,0 l/m 1,6 km/h (1 Bft) W-NW 292 0 min 0,000 mm 63 W/m 11,9 C 13,7 C 9,7 km/h (2 Bft) 100,00 %
17.08.2021 19:20 13,7 C 13,7 C 13,7 C 89 % 0 cb 1019,0 hPa 0,0 l/m 3,2 km/h (1 Bft) W-NW 292 0 min 0,000 mm 63 W/m 11,9 C 13,7 C 11,3 km/h (2 Bft) 100,00 %
17.08.2021 19:30 13,6 C 13,6 C 13,7 C 88 % 0 cb 1018,8 hPa 0,0 l/m 6,4 km/h (2 Bft) W 270 0 min 0,000 mm 32 W/m 11,6 C 13,6 C 14,5 km/h (3 Bft) 100,00 %
17.08.2021 19:40 13,5 C 13,5 C 13,6 C 89 % 0 cb 1018,8 hPa 0,0 l/m 3,2 km/h (1 Bft) W 270 0 min 0,000 mm 14 W/m 11,7 C 13,5 C 12,9 km/h (3 Bft) 100,00 %
17.08.2021 19:50 13,4 C 13,4 C 13,5 C 89 % 0 cb 1018,8 hPa 0,0 l/m 3,2 km/h (1 Bft) W 270 0 min 0,000 mm 14 W/m 11,6 C 13,4 C 14,5 km/h (3 Bft) 100,00 %
17.08.2021 20:00 13,4 C 13,4 C 13,4 C 90 % 0 cb 1018,9 hPa 0,0 l/m 4,8 km/h (1 Bft) W-SW 247 0 min 0,025 mm 9 W/m 11,8 C 13,4 C 12,9 km/h (3 Bft) 100,00 %
17.08.2021 20:10 13,4 C 13,4 C 13,4 C 90 % 0 cb 1019,0 hPa 0,2 l/m 3,2 km/h (1 Bft) W-SW 247 0 min 0,000 mm 5 W/m 11,8 C 13,4 C 8,0 km/h (2 Bft) 100,00 %
17.08.2021 20:20 13,3 C 13,3 C 13,4 C 91 % 0 cb 1019,0 hPa 0,0 l/m 1,6 km/h (1 Bft) W-SW 247 0 min 0,000 mm 0 W/m 11,9 C 13,3 C 8,0 km/h (2 Bft) 100,00 %
17.08.2021 20:30 13,3 C 13,3 C 13,3 C 92 % 0 cb 1018,9 hPa 0,0 l/m 1,6 km/h (1 Bft) W-SW 247 0 min 0,000 mm 0 W/m 12,0 C 13,3 C 8,0 km/h (2 Bft) 100,00 %
17.08.2021 20:40 13,3 C 13,3 C 13,3 C 92 % 0 cb 1019,0 hPa 0,0 l/m 3,2 km/h (1 Bft) W-SW 247 0 min 0,000 mm 0 W/m 12,0 C 13,3 C 11,3 km/h (2 Bft) 100,00 %
17.08.2021 20:50 13,2 C 13,2 C 13,3 C 93 % 0 cb 1018,9 hPa 0,2 l/m 3,2 km/h (1 Bft) W-SW 247 0 min 0,000 mm 0 W/m 12,1 C 13,2 C 12,9 km/h (3 Bft) 100,00 %
17.08.2021 21:00 13,1 C 13,1 C 13,2 C 93 % 0 cb 1019,0 hPa 0,2 l/m 3,2 km/h (1 Bft) W-SW 247 0 min 0,000 mm 0 W/m 12,0 C 13,1 C 14,5 km/h (3 Bft) 100,00 %
17.08.2021 21:10 13,0 C 13,0 C 13,1 C 93 % 0 cb 1019,0 hPa 0,2 l/m 4,8 km/h (1 Bft) W-SW 247 0 min 0,000 mm 0 W/m 11,9 C 13,0 C 14,5 km/h (3 Bft) 100,00 %
17.08.2021 21:20 12,9 C 12,9 C 13,0 C 93 % 0 cb 1018,8 hPa 0,0 l/m 4,8 km/h (1 Bft) W-SW 247 0 min 0,000 mm 0 W/m 11,8 C 12,9 C 14,5 km/h (3 Bft) 99,56 %
17.08.2021 21:30 12,8 C 12,8 C 12,9 C 94 % 0 cb 1019,0 hPa 0,0 l/m 3,2 km/h (1 Bft) W-SW 247 0 min 0,000 mm 0 W/m 11,9 C 12,8 C 12,9 km/h (3 Bft) 100,00 %
17.08.2021 21:40 12,8 C 12,8 C 12,8 C 94 % 0 cb 1019,0 hPa 0,0 l/m 3,2 km/h (1 Bft) W-SW 247 0 min 0,000 mm 0 W/m 11,9 C 12,8 C 11,3 km/h (2 Bft) 100,00 %
17.08.2021 21:50 12,8 C 12,8 C 12,8 C 94 % 0 cb 1019,1 hPa 0,0 l/m 4,8 km/h (1 Bft) W 270 0 min 0,000 mm 0 W/m 11,9 C 12,8 C 17,7 km/h (3 Bft) 100,00 %
17.08.2021 22:00 12,8 C 12,8 C 12,8 C 94 % 0 cb 1019,1 hPa 0,0 l/m 4,8 km/h (1 Bft) W 270 0 min 0,000 mm 0 W/m 11,9 C 12,8 C 16,1 km/h (3 Bft) 100,00 %
17.08.2021 22:10 12,7 C 12,7 C 12,8 C 95 % 0 cb 1019,2 hPa 0,0 l/m 4,8 km/h (1 Bft) W 270 0 min 0,000 mm 0 W/m 11,9 C 12,7 C 16,1 km/h (3 Bft) 100,00 %
17.08.2021 22:20 12,7 C 12,7 C 12,8 C 95 % 0 cb 1019,1 hPa 0,0 l/m 4,8 km/h (1 Bft) W 270 0 min 0,000 mm 0 W/m 11,9 C 12,7 C 11,3 km/h (2 Bft) 100,00 %
17.08.2021 22:30 12,7 C 12,7 C 12,8 C 95 % 0 cb 1019,0 hPa 0,0 l/m 3,2 km/h (1 Bft) W 270 0 min 0,000 mm 0 W/m 11,9 C 12,7 C 12,9 km/h (3 Bft) 100,00 %
17.08.2021 22:40 12,7 C 12,7 C 12,8 C 95 % 0 cb 1019,0 hPa 0,0 l/m 4,8 km/h (1 Bft) W-SW 247 0 min 0,000 mm 0 W/m 11,9 C 12,7 C 12,9 km/h (3 Bft) 100,00 %
17.08.2021 22:50 12,7 C 12,7 C 12,7 C 95 % 0 cb 1019,0 hPa 0,0 l/m 4,8 km/h (1 Bft) W-SW 247 0 min 0,000 mm 0 W/m 11,9 C 12,7 C 11,3 km/h (2 Bft) 100,00 %
17.08.2021 23:00 12,7 C 12,7 C 12,8 C 95 % 0 cb 1018,9 hPa 0,0 l/m 3,2 km/h (1 Bft) W-SW 247 0 min 0,000 mm 0 W/m 11,9 C 12,7 C 16,1 km/h (3 Bft) 100,00 %
17.08.2021 23:10 12,7 C 12,7 C 12,7 C 95 % 0 cb 1019,0 hPa 0,0 l/m 4,8 km/h (1 Bft) W 270 0 min 0,000 mm 0 W/m 11,9 C 12,7 C 16,1 km/h (3 Bft) 100,00 %
17.08.2021 23:20 12,6 C 12,6 C 12,7 C 95 % 0 cb 1019,0 hPa 0,0 l/m 6,4 km/h (2 Bft) W 270 0 min 0,000 mm 0 W/m 11,8 C 12,6 C 17,7 km/h (3 Bft) 100,00 %
17.08.2021 23:30 12,6 C 12,6 C 12,6 C 95 % 0 cb 1019,0 hPa 0,2 l/m 1,6 km/h (1 Bft) W-NW 292 0 min 0,000 mm 0 W/m 11,8 C 12,6 C 6,4 km/h (2 Bft) 99,12 %
17.08.2021 23:40 12,7 C 12,6 C 12,7 C 95 % 0 cb 1019,0 hPa 0,0 l/m 1,6 km/h (1 Bft) W-NW 292 0 min 0,000 mm 0 W/m 11,9 C 12,7 C 9,7 km/h (2 Bft) 100,00 %
17.08.2021 23:50 12,6 C 12,6 C 12,7 C 95 % 0 cb 1019,0 hPa 0,0 l/m 1,6 km/h (1 Bft) SW 225 0 min 0,000 mm 0 W/m 11,8 C 12,6 C 6,4 km/h (2 Bft) 100,00 %
_ Min-Zeit 06:00 06:00 06:10 14:10 00:00 18:40 - 01:00 - - - - - 06:00 06:00 01:40 02:00
Minimum _ 7,7 C 7,7 C 7,7 C 68 % 0 cb 1018,8 hPa - 0,0 km/h (0 Bft) - - - - - 7,0 C 7,7 C 0,0 km/h (0 Bft) 99,12 %
_ Max-Zeit 13:50 14:10 13:50 07:50 00:00 10:30 00:00 13:20 - - 08:30 13:00 14:00 12:30 14:10 13:40 00:00
Maximum _ 17,0 C 16,8 C 17,0 C 97 % 0 cb 1021,9 hPa 0,2 l/m 11,3 km/h
W (2 Bft)
- - 10 min 0,330 mm 963 W/m 12,7 C 17,0 C 27,4 km/h
W-SW (4 Bft)
100,00 %
Durchschnitt _ 12,1 C 12,1 C 12,2 C 88 % 0 cb 1020,1 hPa #1,2 l/m 3,4 km/h (1 Bft) W - #7:20 h #1,599 mm 251 W/m 10,2 C 12,1 C 10,6 km/h (2 Bft) 99,95 %
Wetterstation Gdesweiler